This is the latest recevied weather packets stored in our database for station/object DL4JCP-6. If no packets are shown the sender has not sent any weather packets the latest 10 day(s).
| Time | Temp. | Humidity | Pressure | Rain* | Wind** | Luminosity | Snow |
|---|---|---|---|---|---|---|---|
| 1777810700 | 23.33° C | 38% | 1016.3 hPa | 0 mm | - | - | - |
| 1777810460 | 23.33° C | 37% | 1016.3 hPa | 0 mm | - | - | - |
| 1777810160 | 23.89° C | 36% | 1016.5 hPa | 0 mm | - | - | - |
| 1777809859 | 23.89° C | 35% | 1016.6 hPa | 0 mm | - | - | - |
| 1777809799 | 23.89° C | 35% | 1016.6 hPa | 0 mm | - | - | - |
| 1777809559 | 23.89° C | 36% | 1016.6 hPa | 0 mm | - | - | - |
| 1777809259 | 23.33° C | 35% | 1016.7 hPa | 0 mm | - | - | - |
| 1777808959 | 22.78° C | 34% | 1016.6 hPa | 0 mm | - | - | - |
| 1777808899 | 22.78° C | 34% | 1016.6 hPa | 0 mm | - | - | - |
| 1777808670 | 23.33° C | 37% | 1016.9 hPa | 0 mm | - | - | - |
| 1777808359 | 23.33° C | 30% | 1016.8 hPa | 0 mm | - | - | - |
| 1777808058 | 23.89° C | 33% | 1016.9 hPa | 0 mm | - | - | - |
| 1777807999 | 23.89° C | 33% | 1016.9 hPa | 0 mm | - | - | - |
| 1777807758 | 23.33° C | 33% | 1016.9 hPa | 0 mm | - | - | - |
| 1777807458 | 23.33° C | 34% | 1016.9 hPa | 0 mm | - | - | - |
| 1777807158 | 22.78° C | 32% | 1016.9 hPa | 0 mm | - | - | - |
| 1777807100 | 22.78° C | 32% | 1016.9 hPa | 0 mm | - | - | - |
| 1777806858 | 23.33° C | 32% | 1016.8 hPa | 0 mm | - | - | - |
| 1777806557 | 23.33° C | 32% | 1017 hPa | 0 mm | - | - | - |
| 1777806258 | 23.33° C | 33% | 1017 hPa | 0 mm | - | - | - |
| 1777806202 | 23.33° C | 33% | 1017 hPa | 0 mm | - | - | - |
| 1777805957 | 23.33° C | 31% | 1017 hPa | 0 mm | - | - | - |
| 1777805299 | 23.89° C | 32% | 1017.2 hPa | 0 mm | - | - | - |
| 1777804399 | 23.33° C | 31% | 1017.1 hPa | 0 mm | - | - | - |
| 1777803499 | 23.89° C | 31% | 1017.3 hPa | 0 mm | - | - | - |
* Rain latest hour (hover to see other rain measurements)
** Current wind speed in m/s (hover to see current wind gust speed)